sat.trackr.live / text

‹ back to catalog

STARLINK-35603

NORAD 66141 · 2025-237AD

PAYLOAD ACTIVE UNKNOWN

§ Identity

Operator
Country
US
Launch date
2025-10-22
Launch site
AFWTR
Launch vehicle
Mass (kg)
RCS (m²)

Purposes: comms

External: N2YO · Heavens-Above · Gunter

§ Orbital elements

Epoch: 2026-09-20T07:50:07.141056Z

Period
93.85 min
Inclination
53.1581°
Eccentricity
0.0001230
Mean motion
15.34405504 rev/d
Perigee alt
461.8 km
Apogee alt
463.5 km
Semi-major
6,840.8 km
B*
5.6748e-4
RAAN
212.4774°
Arg perigee
89.3957°
Mean anomaly
270.7187°
Rev number
5,245

§ Raw data

STARLINK-356031 66141U 25237AD  26263.32647154  .00018848  00000+0  56748-3 0  99992 66141  53.1581 212.4774 0001230  89.3957 270.7187 15.34405504 52456

JSON: /api/v1/satellites/66141 · /tle

For live sub-satellite position, see the globe view (requires WebGL).

§ Visibility from observer

Set your observer location to see the next 7 days of passes ≥ 10°. The values pass through the URL so the page stays shareable.

No JS? Fill the form by hand. The geolocation button needs JavaScript.